Theta_e
299 299 302 302 303 294 295 297 294 296 299 299 295 298 296 293 290 290 294 296 296 300 306 308 310 311 312 314 316 317 317 318 320 321 323 325 327 329 331 332 333 335 338 340 341 343 344 344 345 347 348 349 350 350 350 350 350 351 350 351 351 350 350
300 300 303 303 304 300 295 293 296 299 301 299 297 290 288 287 287 288 292 295 294 297 295 304 307 308 310 310 313 316 317 317 318 320 322 325 327 329 331 333 335 336 338 339 341 343 344 345 345 346 348 350 350 351 350 350 350 349 350 350 350 350 349
299 301 301 300 301 302 303 296 300 300 293 294 291 292 287 286 286 285 289 293 293 296 298 300 304 306 308 309 311 313 314 316 318 320 321 324 327 328 330 332 333 335 337 339 340 342 344 345 347 347 348 350 350 351 351 351 350 351 351 351 351 350 349
298 299 298 294 297 301 300 301 299 301 298 292 292 294 291 293 285 286 286 290 292 297 299 303 305 307 309 310 310 311 314 316 318 319 321 322 325 327 329 332 333 335 337 339 340 342 343 344 345 347 348 349 349 350 351 351 351 351 351 350 351 349 348
298 293 295 297 298 293 295 297 294 298 301 297 296 296 292 292 287 286 285 287 289 295 301 304 307 307 309 310 311 313 314 316 318 320 321 322 324 326 328 331 333 335 336 338 340 342 344 345 346 347 347 348 349 350 350 350 350 350 350 350 350 349 347
293 293 296 299 298 299 296 297 295 296 293 294 292 291 294 291 292 284 285 289 289 299 306 307 307 308 310 312 313 313 315 316 318 320 321 323 324 326 328 330 333 334 336 337 339 342 343 343 344 345 346 347 348 349 350 350 350 350 349 349 349 348 345
296 297 300 300 300 301 300 301 298 299 297 294 292 287 290 292 293 293 290 289 293 300 305 308 309 307 309 312 314 314 315 316 317 319 321 323 325 326 328 329 332 334 336 337 338 340 341 342 343 344 345 346 347 348 349 350 350 350 350 350 349 347 343
297 300 300 301 300 300 299 298 298 297 297 297 296 294 292 294 291 293 292 290 288 296 307 309 309 309 309 311 314 315 316 316 318 319 320 322 323 325 328 330 331 333 335 336 337 338 339 340 342 342 344 345 346 348 349 349 349 350 350 350 348 345 342
292 295 297 297 298 299 295 295 296 297 297 298 296 295 294 295 292 294 291 287 290 299 309 308 310 310 311 311 314 316 315 316 318 319 321 322 324 325 326 328 330 331 332 333 335 337 338 339 341 342 343 344 345 346 348 348 349 350 350 350 346 343 341
285 285 287 289 293 293 293 295 296 297 298 296 297 294 294 290 292 294 290 288 292 298 302 306 309 309 310 311 313 316 316 317 318 319 321 322 323 323 325 326 328 329 331 333 334 335 337 338 339 340 342 343 344 345 347 348 349 349 349 348 345 342 339
291 292 291 294 298 293 295 294 297 296 297 299 299 294 291 292 288 293 289 295 297 300 304 305 306 309 310 311 312 315 316 316 318 320 321 322 322 323 323 326 328 329 329 330 332 334 335 337 338 339 340 342 343 344 345 347 348 349 348 345 344 342 339
298 298 297 297 299 296 295 296 296 297 297 297 297 295 295 294 293 289 291 293 300 300 303 306 306 307 309 311 313 315 316 317 318 319 321 329 322 323 323 324 325 327 328 329 330 332 333 335 337 338 340 341 342 343 344 346 347 347 345 343 342 341 340
299 300 299 299 298 297 296 296 297 296 296 296 296 297 297 297 297 295 296 295 299 302 304 307 308 310 311 312 314 316 318 319 318 319 320 321 321 321 322 323 325 326 327 328 329 330 332 334 335 337 338 340 342 343 345 346 347 346 344 342 341 340 339
298 298 298 298 298 298 298 297 296 296 296 295 297 298 299 299 299 300 300 298 301 304 306 307 309 311 313 314 315 316 317 317 318 318 319 320 321 321 321 322 324 325 327 328 329 329 330 331 333 335 337 339 341 343 344 345 346 345 342 341 340 340 338
295 297 298 297 296 297 297 298 298 297 296 295 297 298 298 301 299 300 300 299 301 305 307 309 310 310 311 312 315 316 317 317 318 318 318 319 321 321 322 323 324 325 326 327 328 329 329 330 332 334 336 339 341 343 344 345 345 344 342 340 340 339 336
292 296 296 296 296 295 295 296 297 296 295 294 294 296 299 299 299 298 298 297 299 305 307 311 308 309 311 312 313 314 315 317 319 318 319 319 320 321 321 323 324 325 325 326 326 328 330 331 332 333 335 338 341 342 343 344 344 342 340 340 339 338 335
290 295 295 296 294 295 292 293 296 297 296 297 297 303 305 302 301 299 297 298 304 307 309 308 308 308 310 310 311 313 315 316 318 319 319 319 320 321 322 323 325 325 326 326 327 327 329 331 332 334 337 338 340 342 343 343 341 339 339 338 338 337 335
289 294 294 294 291 287 287 295 297 299 298 297 298 298 302 304 302 300 301 302 305 307 307 308 307 307 309 312 313 315 317 316 316 318 319 320 321 321 322 324 325 325 327 328 328 329 330 332 334 336 339 339 341 342 343 341 339 338 338 337 337 335 334
290 292 294 291 286 287 296 304 307 302 300 301 300 305 306 307 306 307 307 306 305 307 309 310 310 311 312 314 314 313 315 317 318 319 319 319 322 323 323 324 325 327 330 331 331 331 331 333 334 337 339 340 341 341 340 338 338 337 337 337 335 334 333
292 292 290 286 284 295 305 307 308 313 309 307 306 304 307 308 309 307 305 306 307 308 308 309 310 310 313 314 316 316 315 317 319 318 319 320 323 323 325 326 327 328 330 332 333 334 336 336 335 337 338 340 340 339 339 338 337 337 336 335 334 333 333
291 289 288 289 296 301 304 305 306 307 305 305 304 299 303 308 311 309 306 305 306 309 310 310 311 312 312 311 312 312 316 318 320 320 320 322 325 326 327 329 330 331 331 333 334 336 337 337 336 336 338 339 338 337 337 337 336 336 335 334 333 332 332
292 290 289 293 293 290 296 302 310 311 311 311 309 303 303 307 312 312 308 307 308 309 310 310 311 312 310 308 310 313 315 316 319 318 320 322 324 325 326 324 326 329 331 333 336 336 337 336 336 336 337 337 336 335 335 335 335 334 334 333 333 332 332
293 292 289 286 288 293 298 304 308 313 313 314 309 303 299 306 312 313 308 307 308 308 309 310 310 309 304 304 309 314 317 317 318 318 319 320 321 323 323 323 327 332 334 336 336 336 336 334 333 334 336 336 335 334 334 334 334 333 333 333 333 332 332
294 288 287 290 293 298 306 307 310 313 314 312 304 295 294 303 313 313 311 309 308 309 309 311 310 306 304 307 314 317 321 329 326 320 324 329 335 337 337 335 335 337 338 337 334 334 333 332 331 334 335 335 334 334 333 334 333 333 333 333 334 334 333
294 296 290 291 298 306 309 309 311 312 314 304 296 291 297 310 312 314 314 314 315 314 314 315 313 314 310 312 316 322 327 332 335 337 338 338 338 338 338 339 340 335 333 334 334 333 332 330 331 333 334 333 333 334 333 332 332 333 334 334 334 334 334
295 291 290 292 294 301 308 311 311 313 305 295 293 303 310 311 313 315 319 317 318 318 318 319 318 319 322 325 326 328 329 330 331 335 338 340 340 340 342 341 337 334 332 331 331 330 328 330 331 332 333 333 333 332 331 331 332 333 334 334 335 334 333
296 292 291 292 292 303 311 310 309 310 299 298 306 312 314 318 317 318 317 317 318 320 318 319 320 322 324 325 326 328 329 330 331 332 333 334 335 336 337 338 339 334 330 329 329 328 329 329 330 331 332 332 331 331 330 330 331 333 334 334 334 334 332
294 291 289 291 298 306 313 310 305 310 310 313 314 315 313 315 317 319 320 320 321 321 321 321 321 322 322 323 325 326 327 328 328 328 328 328 330 331 334 335 334 333 329 328 328 328 328 328 328 329 331 331 330 329 328 329 331 333 333 333 333 332 332
299 297 297 304 310 311 314 312 312 313 315 316 317 316 315 315 316 319 320 319 320 320 320 319 318 317 320 322 324 324 325 326 327 326 326 327 328 328 329 332 334 332 331 328 327 327 327 328 328 328 329 330 331 328 327 330 331 331 332 332 332 332 331
310 310 310 314 312 313 314 315 314 312 312 312 313 312 311 312 314 318 319 320 320 320 320 319 318 317 317 320 323 325 326 325 326 328 328 328 328 329 329 330 332 331 330 329 327 327 327 327 327 329 328 330 330 327 329 331 330 330 331 331 331 331 331
302 298 309 310 312 313 312 315 315 314 314 313 313 312 311 311 311 312 313 316 319 321 322 321 320 319 319 320 322 324 324 324 325 326 326 326 326 325 327 328 332 329 329 327 327 329 328 327 327 328 327 329 329 328 330 330 329 330 330 330 331 330 330
302 304 309 313 315 315 315 313 313 313 314 314 315 315 315 315 315 314 314 314 313 315 315 317 319 319 322 322 321 323 324 325 326 325 326 326 326 324 325 328 330 328 328 327 329 328 328 327 328 328 328 329 329 329 330 329 329 329 330 329 329 328 328
308 312 313 313 312 313 314 315 311 314 313 312 311 312 312 312 310 310 311 312 312 312 313 314 313 313 314 316 321 324 323 324 324 325 324 324 324 324 327 328 331 327 328 329 328 329 328 327 327 327 328 330 332 331 330 330 329 328 328 331 329 328 328
303 304 307 310 305 304 309 313 315 312 314 311 309 309 309 309 309 309 310 310 312 312 313 313 313 313 314 316 321 322 323 324 324 324 324 324 324 324 326 327 327 327 330 329 328 328 326 326 327 327 328 329 333 335 334 332 329 328 329 330 329 328 329
299 307 311 309 310 310 310 312 315 314 315 310 308 308 308 309 310 310 310 309 310 311 312 313 312 312 313 314 317 319 322 325 326 325 325 326 326 327 327 327 327 327 327 329 328 328 326 327 327 328 328 330 332 333 334 334 332 330 330 329 329 329 329
305 307 306 307 307 306 308 310 311 313 313 311 309 310 310 310 310 311 310 310 309 309 310 311 312 311 311 312 313 313 315 320 325 327 328 327 326 326 327 326 325 326 327 327 327 327 325 326 328 328 329 330 332 333 333 333 333 332 331 330 328 327 328
306 310 309 309 308 308 310 311 311 312 314 315 311 310 309 309 310 311 310 310 310 310 310 310 311 312 311 311 312 312 312 315 320 322 325 328 330 329 328 328 325 325 326 326 326 324 324 326 327 328 329 330 332 333 333 332 332 331 331 331 329 328 328
Wind_Speed
5 7 6 5 9 8 4 5 6 7 7 8 3 1 0 3 3 5 3 2 5 8 9 6 3 3 9 8 11 10 11 7 10 12 13 14 14 15 15 15 15 16 14 13 14 15 14 14 13 15 16 16 17 15 14 15 15 13 14 14 13 12 11
6 5 8 6 7 8 5 5 8 2 3 4 6 6 1 1 5 5 3 8 2 4 6 4 2 6 13 7 13 15 8 6 10 12 13 15 16 17 17 17 16 16 17 18 17 16 17 17 18 18 18 16 15 14 15 15 14 14 14 14 14 13 13
5 2 3 5 5 4 10 5 8 8 4 5 3 4 2 1 2 2 2 3 3 8 7 2 4 10 14 12 13 10 6 10 14 13 14 15 15 14 14 15 14 13 14 15 15 16 17 17 17 17 17 15 12 12 13 13 16 17 15 11 11 10 11
2 4 7 12 9 1 2 6 4 0 5 4 5 7 5 5 5 2 5 1 6 7 7 11 11 12 14 14 9 11 14 16 15 13 14 14 15 15 15 14 15 16 17 18 18 18 18 17 17 16 16 14 15 15 14 13 12 10 9 12 13 14 13
1 6 4 11 11 7 3 4 3 2 0 3 4 1 5 6 6 6 5 3 5 8 9 10 15 13 14 14 14 13 14 15 16 16 14 12 14 14 14 15 15 17 16 16 16 16 16 16 14 12 12 15 16 14 14 14 14 14 15 15 13 12 9
5 7 6 7 8 9 8 10 8 8 6 4 6 9 2 2 3 4 4 8 6 9 4 11 13 13 13 13 15 15 15 14 14 12 11 14 15 15 15 16 16 15 14 15 14 13 11 10 11 13 14 14 14 15 16 15 14 14 15 14 13 12 11
10 9 8 5 4 8 9 12 11 11 6 5 5 6 5 1 1 5 4 1 7 8 6 12 14 6 7 8 10 13 12 12 10 9 10 11 14 15 16 16 15 14 14 14 15 16 16 17 17 17 15 15 16 17 17 15 15 17 16 15 12 10 11
4 5 4 2 4 4 1 4 1 8 11 10 9 6 8 7 1 1 1 2 6 3 2 5 5 4 4 5 8 13 11 5 4 7 9 11 10 11 12 12 11 11 10 10 10 12 12 12 12 14 14 14 14 14 15 14 16 16 14 12 12 12 11
4 6 4 5 1 3 4 4 5 6 4 4 1 3 2 6 7 9 7 8 3 4 2 4 3 4 7 9 10 8 10 7 7 8 9 10 11 10 10 10 10 8 10 13 14 14 15 15 14 14 14 14 14 13 13 14 15 15 13 10 11 11 12
9 8 11 11 10 9 2 2 5 6 10 7 4 5 2 8 3 4 4 4 8 7 4 4 3 5 6 6 6 7 8 6 8 8 10 10 10 12 11 8 8 13 14 12 11 12 12 13 14 14 13 13 13 13 14 14 13 11 12 10 11 11 11
12 11 7 6 5 3 7 4 8 6 7 12 9 6 6 10 5 8 8 8 5 4 6 6 7 4 8 8 6 9 11 10 10 8 9 10 10 10 11 12 10 6 7 12 13 13 13 13 12 12 13 13 13 13 13 12 11 10 10 10 10 11 12
16 15 13 9 9 7 7 8 7 9 9 8 10 9 10 6 9 8 6 4 6 9 8 10 9 7 5 6 7 9 8 9 11 10 7 6 5 5 4 5 8 12 12 11 11 12 11 11 11 10 11 11 11 12 12 10 9 10 9 11 12 12 13
15 14 14 8 5 7 7 9 8 9 9 9 13 10 11 10 9 12 8 8 8 9 11 14 15 13 13 14 17 16 9 2 3 6 7 10 11 8 9 9 9 9 10 10 11 11 11 10 10 11 10 9 8 8 8 10 11 13 12 12 12 12 12
13 13 11 5 10 5 4 5 7 7 9 11 13 12 9 14 9 11 12 13 16 12 12 12 14 13 11 7 2 2 5 9 11 9 10 13 12 12 11 11 10 10 10 10 10 9 7 10 11 10 9 10 10 11 11 11 12 11 11 13 14 13 12
9 12 11 7 8 10 11 11 9 8 7 9 11 8 5 5 7 4 2 9 12 9 7 9 1 3 4 4 7 11 8 6 9 10 12 12 12 11 9 8 9 9 8 7 6 7 8 9 10 10 9 8 8 9 10 12 13 12 13 12 13 12 12
6 5 8 11 8 9 11 14 12 10 6 6 4 5 7 7 8 5 3 5 10 10 4 3 3 5 7 9 10 8 7 9 10 12 13 11 9 8 9 9 8 8 8 8 9 10 9 8 7 8 8 8 9 11 11 12 10 8 9 10 11 12 13
6 9 6 10 6 2 5 10 12 12 9 7 4 2 5 8 7 7 7 10 11 12 6 6 3 7 10 7 6 7 6 6 11 12 9 7 7 9 8 9 10 10 10 9 8 6 5 7 7 6 6 7 9 10 10 8 7 9 10 11 12 13 13
5 9 4 2 4 8 8 7 6 11 12 10 8 6 7 4 6 8 8 9 3 2 6 10 8 7 10 15 14 10 13 13 9 7 8 9 8 6 6 7 7 5 5 5 5 7 8 9 11 11 11 13 13 11 9 8 11 11 12 12 13 13 13
5 3 5 2 7 8 6 2 3 7 11 14 12 5 3 2 2 4 7 9 7 8 9 14 13 9 3 1 5 4 5 7 9 12 11 8 8 9 8 6 6 7 8 7 7 8 8 8 6 8 9 9 7 7 9 10 10 12 12 12 12 12 12
1 1 3 3 5 3 2 1 4 6 10 10 15 4 1 1 1 2 5 8 7 7 8 3 2 4 2 3 4 0 6 9 10 9 10 9 9 9 9 10 8 9 9 10 10 9 6 7 7 9 9 7 8 8 8 10 10 11 12 12 11 9 10
3 2 3 5 2 2 0 1 2 2 3 2 2 7 2 2 1 2 3 5 4 2 1 3 6 7 6 4 4 6 3 1 1 5 5 8 9 7 7 9 11 9 8 9 8 6 7 7 8 7 6 7 7 8 9 9 10 9 9 9 9 10 10
3 3 0 1 1 3 6 3 1 1 1 1 2 3 2 1 3 1 1 1 3 1 1 5 7 7 9 4 1 7 7 4 1 3 3 3 3 4 7 3 5 5 5 4 4 7 8 6 4 5 6 8 8 8 8 8 9 9 10 10 10 12 12
2 1 3 3 5 5 6 2 2 1 1 1 4 4 3 0 4 2 4 5 1 4 5 3 4 7 6 2 3 6 6 5 2 5 6 6 6 4 4 5 9 7 6 7 8 7 8 7 4 5 7 8 8 8 8 9 9 10 10 10 12 13 13
1 3 3 3 2 2 1 3 4 5 4 1 4 6 4 3 8 5 2 8 4 4 7 9 9 7 7 2 2 4 4 4 4 4 7 7 7 8 7 7 6 7 6 8 7 7 6 6 6 7 7 7 7 8 8 7 8 9 10 12 12 12 12
5 2 1 3 1 2 2 5 10 9 4 3 6 8 5 3 5 4 1 7 6 5 6 5 9 1 4 4 1 3 1 7 10 9 9 9 9 9 8 7 6 8 8 7 5 4 4 6 6 6 6 6 7 5 6 6 7 8 9 10 12 11 11
7 4 1 3 3 3 4 8 11 6 2 4 7 4 0 1 2 4 1 10 11 15 14 11 8 3 2 4 5 9 11 11 6 8 9 11 11 8 8 7 8 8 6 6 6 5 4 4 5 5 6 6 3 4 5 6 6 7 9 10 10 11 12
1 3 0 2 4 2 9 17 6 3 2 2 3 6 4 2 2 3 4 6 7 14 14 11 9 7 7 8 10 11 11 12 11 11 11 10 9 8 8 9 7 7 7 5 4 3 3 4 4 4 5 5 4 4 6 6 6 8 9 10 11 11 12
3 4 1 0 2 9 12 4 3 3 3 6 6 8 7 2 3 4 7 7 7 12 14 13 11 9 10 9 9 11 11 11 9 9 9 9 8 7 6 5 4 6 6 4 3 3 3 2 3 3 4 5 5 6 6 5 7 8 9 10 10 11 11
3 3 4 3 2 5 7 8 6 4 7 4 2 7 8 8 6 1 9 8 9 12 14 13 12 13 10 9 10 11 9 10 10 9 7 7 8 7 7 7 5 5 3 4 3 2 2 3 3 4 4 6 6 7 6 6 8 9 9 9 10 10 10
5 4 4 4 3 6 9 8 6 6 6 5 5 6 8 5 4 4 8 6 8 8 9 12 8 8 8 11 11 11 11 10 8 7 7 6 5 6 4 5 5 3 3 2 4 4 3 3 4 4 4 6 7 6 6 6 7 8 9 9 9 9 9
5 1 3 3 3 5 7 6 6 7 5 3 2 7 7 5 6 7 7 6 6 6 8 11 9 6 6 9 7 7 7 7 5 4 4 2 2 5 4 0 0 1 2 3 4 4 3 2 3 3 4 3 5 6 7 7 7 8 8 9 8 8 9
6 9 8 2 4 5 4 3 2 5 5 6 6 5 5 4 5 6 7 7 9 7 10 7 10 9 8 4 3 5 5 4 2 1 1 1 0 2 1 1 0 1 3 5 4 1 1 2 3 3 3 4 5 7 6 6 6 7 7 8 8 8 9
4 10 2 3 7 8 5 4 5 2 2 5 6 7 8 9 11 11 11 10 8 9 7 6 8 11 8 6 5 5 3 2 1 2 3 1 1 3 3 2 4 6 3 2 1 1 0 3 4 4 5 4 5 7 7 6 7 8 8 9 8 9 8
11 11 12 11 13 8 4 4 3 3 2 7 9 9 10 9 10 9 13 11 9 11 9 8 9 10 7 8 7 8 6 5 5 5 3 1 0 1 2 2 1 2 2 2 2 1 2 3 4 5 6 6 5 5 6 7 8 8 8 7 8 9 9
2 2 4 4 5 11 5 4 1 2 1 9 12 10 9 10 9 9 11 12 13 13 12 10 12 11 10 8 8 11 10 9 6 4 4 5 5 5 6 6 5 4 4 2 1 2 3 4 5 6 6 6 6 6 6 6 8 8 8 7 7 7 7
5 6 8 5 5 8 7 8 6 7 6 7 12 9 8 10 12 13 13 10 10 8 9 10 9 8 9 8 9 9 8 9 10 9 6 5 5 5 5 4 3 5 6 5 3 3 3 4 5 5 5 5 7 7 5 5 6 7 7 7 7 6 5
4 5 10 12 14 12 9 8 9 8 7 10 12 11 10 11 11 10 10 9 8 9 9 9 8 8 8 8 8 8 7 7 8 9 9 9 8 5 3 1 2 4 5 5 3 3 4 5 4 4 5 6 6 5 4 5 5 6 7 7 6 7 7
Wind_Direction
180 195 154 194 151 204 224 126 201 212 171 144 79 58 180 121 50 250 187 309 290 307 312 276 335 299 257 238 235 226 226 186 168 186 194 193 192 196 197 199 201 199 193 193 192 190 191 192 191 196 198 196 198 196 196 198 199 194 193 196 194 193 192
255 200 174 181 199 143 108 180 222 146 93 106 144 212 355 86 191 255 124 195 218 122 269 310 241 234 249 240 239 231 209 153 189 199 195 192 193 197 197 199 198 195 193 192 193 193 191 192 194 198 200 199 200 197 197 197 196 197 199 194 193 191 190
218 155 159 282 273 188 187 197 176 154 222 242 310 119 197 117 233 261 277 251 251 195 231 310 233 217 239 240 239 238 197 188 206 205 202 197 193 192 194 197 193 194 196 198 194 194 196 197 197 198 200 197 197 200 202 198 199 203 199 195 194 193 189
229 133 144 220 219 264 30 77 134 100 125 162 148 198 173 157 237 129 288 74 224 212 221 201 232 220 224 227 234 230 218 203 209 206 201 192 189 194 194 193 194 195 197 195 192 193 194 196 197 200 196 192 198 200 198 201 204 196 188 195 196 197 193
56 214 199 210 193 182 164 172 197 197 145 228 116 75 138 178 175 188 178 250 274 251 212 194 217 221 219 210 217 224 226 216 212 208 194 185 189 194 193 193 195 197 198 194 196 197 199 198 199 194 191 196 202 196 200 200 195 195 198 201 196 198 179
211 233 227 183 178 169 176 179 199 167 137 155 209 250 39 112 144 213 166 235 258 254 178 204 218 222 215 212 208 219 228 222 215 208 188 184 189 194 192 195 196 197 194 193 195 195 196 190 191 191 197 198 197 198 202 199 198 199 202 200 197 189 182
224 220 232 202 183 182 189 176 205 186 181 141 155 215 256 16 269 113 159 150 270 241 203 200 215 221 243 232 208 219 229 226 218 206 192 191 192 189 193 196 196 193 189 187 188 189 189 191 194 195 195 197 199 201 201 199 198 204 202 200 191 181 182
301 281 293 177 180 144 259 282 235 168 194 191 194 183 180 178 195 161 39 222 248 283 223 229 237 232 246 238 215 223 228 226 208 185 179 189 191 202 202 197 192 185 178 177 180 189 193 198 198 199 199 202 203 204 202 199 203 206 201 193 184 180 182
242 269 333 299 351 173 191 199 200 185 188 175 126 95 93 205 205 176 155 227 276 271 333 299 227 227 225 233 238 226 224 210 187 188 192 193 198 196 193 191 183 163 165 177 187 190 194 197 199 199 200 201 201 203 201 202 207 204 198 186 178 179 179
215 214 212 216 227 214 246 231 189 182 175 153 124 212 173 213 270 148 169 233 247 269 314 292 240 206 237 249 233 231 232 208 187 190 195 199 194 196 190 175 161 180 184 183 186 193 196 198 199 200 200 200 201 202 204 205 203 195 192 179 180 174 172
213 217 210 235 134 111 194 223 186 204 200 179 174 126 152 205 208 185 227 179 215 262 255 257 257 211 220 228 213 209 215 215 203 192 197 201 196 187 183 183 183 157 166 187 192 194 197 198 199 199 199 200 201 201 204 202 198 190 182 175 174 172 176
215 210 210 199 174 189 200 193 210 197 184 182 176 178 218 163 121 235 263 214 183 226 228 230 239 243 247 239 228 230 228 210 195 194 183 168 184 189 163 158 169 184 188 187 190 194 194 199 199 203 204 203 202 200 202 195 185 179 175 175 177 178 180
231 226 224 189 190 192 190 196 194 195 199 170 185 207 206 143 198 220 234 180 196 226 216 214 214 204 206 206 209 209 210 191 131 131 162 186 199 187 181 189 182 182 187 190 193 192 198 191 194 200 199 198 197 199 193 187 183 188 178 175 175 176 179
235 238 238 196 189 221 235 215 206 199 171 188 194 210 197 183 205 210 209 182 206 208 215 216 222 214 205 202 131 106 169 187 183 179 182 192 196 192 189 188 187 188 193 193 196 190 182 189 196 195 195 193 193 192 192 188 190 187 168 179 175 176 170
241 239 231 220 200 209 230 237 232 227 200 191 202 211 204 211 253 291 202 186 228 246 217 219 272 74 93 122 180 195 196 162 176 185 194 198 196 192 191 182 184 189 191 192 177 178 190 193 197 196 193 190 187 191 193 193 194 185 177 175 176 167 158
275 234 213 222 205 211 227 243 239 233 221 213 193 201 194 163 210 205 123 192 239 260 225 167 138 142 158 189 196 190 186 187 182 192 200 198 193 190 189 183 178 182 186 181 183 194 194 190 186 188 188 184 182 198 196 198 192 163 165 166 165 168 172
260 250 193 214 181 148 264 251 240 223 215 206 214 199 169 200 170 157 184 227 219 223 179 158 199 179 200 202 198 203 207 196 190 195 193 186 191 200 187 180 187 188 185 187 190 183 167 183 184 185 166 167 196 199 196 187 133 155 167 168 174 176 173
241 263 216 134 127 217 232 227 197 190 204 199 209 216 195 219 161 198 201 229 287 100 151 185 200 191 203 203 209 194 180 175 177 182 187 196 195 190 188 188 178 164 157 160 172 175 179 185 189 184 182 190 200 192 176 153 161 164 169 178 179 178 175
269 333 76 132 215 234 239 280 227 205 209 197 183 118 94 332 306 306 281 259 241 226 205 196 198 208 252 73 124 144 165 162 168 175 184 184 180 182 176 165 162 165 165 165 180 192 198 189 179 175 193 199 177 163 163 163 167 168 178 177 180 178 175
11 40 137 209 238 236 272 230 72 83 95 117 109 69 137 141 283 240 243 254 253 230 238 256 106 111 120 26 25 80 184 173 175 170 183 183 168 173 181 168 170 167 181 183 184 195 182 165 176 184 191 174 167 172 160 168 170 175 176 178 175 161 161
230 231 197 214 296 22 350 39 48 65 152 208 131 147 191 171 262 211 230 281 293 251 174 144 107 111 89 60 4 15 9 335 163 170 165 160 172 165 174 170 178 186 178 175 181 148 157 168 166 182 162 157 160 155 168 173 169 169 166 166 161 160 157
125 129 28 21 69 166 254 236 249 187 133 205 182 125 171 229 348 142 180 156 282 294 166 125 133 108 82 105 350 336 346 347 5 33 114 117 131 150 151 141 110 115 116 107 128 141 138 138 142 138 147 158 158 165 172 162 162 163 167 169 163 165 168
70 151 165 205 156 236 203 251 270 292 158 170 163 85 104 291 347 321 142 104 127 119 117 78 82 106 116 174 289 315 337 359 54 83 70 78 84 94 103 112 108 117 134 137 128 112 111 120 143 144 151 154 160 175 175 170 166 164 169 167 167 170 172
283 138 120 218 212 111 4 280 306 315 332 257 74 109 207 298 343 317 106 104 93 92 107 99 64 100 121 171 320 312 345 44 47 90 95 81 73 61 70 72 100 108 114 97 84 99 123 148 152 156 153 161 172 179 177 160 165 167 173 173 173 171 165
310 301 231 309 293 275 288 323 319 322 312 76 109 174 221 338 331 329 265 103 109 111 84 82 101 141 167 180 231 338 263 81 58 65 74 78 76 72 68 65 61 65 44 53 81 115 128 140 146 150 155 157 184 177 155 156 170 170 163 164 170 167 163
321 279 151 211 239 239 318 318 315 290 83 148 210 216 233 307 344 341 347 95 95 90 83 79 72 73 63 125 106 74 64 81 80 65 73 73 68 70 74 76 82 83 65 61 63 53 57 115 125 145 155 172 157 135 135 155 162 146 155 164 166 164 169
282 303 19 107 126 229 24 323 332 44 116 224 179 123 32 23 45 54 15 68 81 94 91 90 100 94 70 56 67 70 61 54 44 42 45 53 63 54 53 51 40 73 78 72 73 87 88 115 124 138 143 144 128 127 149 163 153 151 158 164 170 171 172
201 292 343 199 240 290 318 344 68 325 76 139 138 114 90 26 103 98 90 57 78 87 93 96 86 75 70 53 56 60 57 59 55 52 46 40 36 37 41 71 97 100 95 85 72 53 75 91 108 108 138 136 142 148 161 157 148 153 161 171 169 172 176
134 215 237 264 249 314 323 25 20 32 46 35 64 95 104 106 66 98 88 78 69 78 86 78 77 70 60 63 54 63 54 55 50 50 58 64 55 35 29 18 24 57 101 130 116 105 107 109 118 129 137 146 147 160 167 152 154 160 166 170 172 174 176
188 200 212 245 22 21 352 20 27 50 49 24 43 63 84 51 70 41 94 97 85 77 81 87 60 75 78 68 59 53 46 45 41 40 42 42 54 61 50 31 21 45 73 114 152 183 156 136 128 131 143 159 159 162 158 160 157 161 165 171 177 175 174
122 356 350 43 48 28 6 22 14 32 32 21 35 81 67 68 61 54 36 50 56 65 76 90 96 74 70 91 87 91 81 75 69 67 57 20 67 84 67 62 137 128 156 191 210 210 145 117 122 120 133 138 139 140 158 163 160 164 169 173 175 168 174
131 169 181 226 88 70 16 356 53 51 32 30 30 57 73 60 53 60 50 44 37 34 47 44 78 61 21 27 69 91 103 104 67 46 148 190 36 52 331 341 95 244 223 227 223 237 77 110 115 125 136 151 155 160 160 168 162 164 169 175 173 172 170
75 66 62 167 101 69 45 12 6 17 75 78 47 50 62 70 68 64 55 54 63 60 62 43 59 62 35 26 19 31 34 42 341 283 287 282 107 125 147 199 189 199 215 265 319 28 64 126 154 164 181 182 176 172 176 174 170 175 180 180 172 168 168
149 161 182 178 134 154 160 116 325 317 43 90 86 74 67 63 69 66 71 58 53 60 56 66 72 72 55 36 42 51 34 8 338 328 328 305 350 96 163 160 62 5 331 315 333 249 185 170 178 195 196 196 193 186 181 185 178 186 186 179 173 177 175
201 358 139 354 49 88 66 93 349 336 343 87 77 76 84 78 72 73 73 68 51 46 42 40 53 56 56 39 43 46 34 21 13 358 332 343 4 17 14 8 355 337 308 291 248 212 201 185 200 207 207 200 196 205 208 187 187 190 183 183 187 186 177
36 52 56 28 69 89 77 57 48 32 359 67 78 66 67 74 70 63 60 59 70 56 50 45 45 53 50 42 50 53 40 30 27 21 12 18 26 22 31 32 342 319 306 299 276 240 205 206 217 221 220 216 210 218 202 184 188 188 185 189 180 181 170
95 75 79 84 85 73 69 71 64 52 37 51 60 46 34 49 57 66 69 58 52 62 58 50 40 42 53 48 49 45 40 28 30 25 22 21 10 4 332 323 276 267 268 269 262 218 200 223 230 233 236 236 231 227 196 184 176 183 185 184 196 176 162